This is the latest recevied weather packets stored in our database for station/object IA5FYI-13. If no packets are shown the sender has not sent any weather packets the latest 10 day(s).
| Time | Temp. | Humidity | Pressure | Rain* | Wind** | Luminosity | Snow |
|---|---|---|---|---|---|---|---|
| 1777731013 | 21.11° C | 35% | 1020.7 hPa | 0 mm | - | - | - |
| 1777730708 | 21.11° C | 35% | 1020.7 hPa | 0 mm | - | - | - |
| 1777730431 | 21.11° C | 34% | 1021 hPa | 0 mm | - | - | - |
| 1777730108 | 21.11° C | 33% | 1020.7 hPa | 0 mm | - | - | - |
| 1777729812 | 22.22° C | 34% | 1020.7 hPa | 0 mm | - | - | - |
| 1777729212 | 21.11° C | 39% | 1021 hPa | 0 mm | - | - | - |
| 1777728909 | 22.22° C | 37% | 1021 hPa | 0 mm | - | - | - |
| 1777728622 | 21.11° C | 38% | 1021.3 hPa | 0 mm | - | - | - |
| 1777728309 | 22.22° C | 37% | 1021.3 hPa | 0 mm | - | - | - |
| 1777728012 | 21.11° C | 37% | 1021 hPa | 0 mm | - | - | - |
| 1777727712 | 21.11° C | 38% | 1021.3 hPa | 0 mm | - | - | - |
| 1777727412 | 21.11° C | 39% | 1021.3 hPa | 0 mm | - | - | - |
| 1777727109 | 21.11° C | 40% | 1021.7 hPa | 0 mm | - | - | - |
| 1777726831 | 21.11° C | 39% | 1021.7 hPa | 0 mm | - | - | - |
| 1777726508 | 21.11° C | 40% | 1021.7 hPa | 0 mm | - | - | - |
| 1777726212 | 21.11° C | 38% | 1021.7 hPa | 0 mm | - | - | - |
| 1777725612 | 21.11° C | 39% | 1021.7 hPa | 0 mm | - | - | - |
| 1777725309 | 20° C | 36% | 1021.7 hPa | 0 mm | - | - | - |
| 1777725022 | 20° C | 37% | 1021.7 hPa | 0 mm | - | - | - |
| 1777724112 | 21.11° C | 37% | 1022 hPa | 0 mm | - | - | - |
| 1777723812 | 21.11° C | 37% | 1022 hPa | 0 mm | - | - | - |
| 1777722013 | 21.11° C | 36% | 1022.4 hPa | 0 mm | - | - | - |
| 1777721708 | 21.11° C | 35% | 1022.4 hPa | 0 mm | - | - | - |
| 1777721422 | 20° C | 34% | 1022 hPa | 0 mm | - | - | - |
| 1777721109 | 20° C | 35% | 1022.4 hPa | 0 mm | - | - | - |
* Rain latest hour (hover to see other rain measurements)
** Current wind speed in m/s (hover to see current wind gust speed)